Location: *
(48.8489°N, 2.3218°E)
Time: 08:02:58
(UTC+00:00)

SL-08 RB Rocket - Pass Details

Date: 23 August 2019
Orbit: 648 x 683 km, 97.9° (Epoch: 16 September)

Event Time Altitude Azimuth Distance (km) Brightness Sun altitude
Exits shadow 19:50:36 - 159° (SSE) 2,422 6.1 -9.7°
Reaches altitude 10° 19:51:26 10° 158° (SSE) 2,077 5.8 -9.8°
Maximum altitude 19:55:58 74° 74° (ENE) 699 3.7 -10.4°
Drops below altitude 10° 20:00:35 10° 350° (N) 2,116 6.9 -11.1°
Sets 20:02:50 0° 348° (NNW) 3,040 7.8 -11.4°
